Zurück zum Katalog

COSMOS 1718

AktivMilitärLEO
NORAD 16451·PAYLOAD·🇷🇺 Russia

Gestartet Jan 9, 1986 von Plesetsk Cosmodrome

Loading…

Nächste Überflüge (nächste 24 Stunden)

TLE

AktuellSource: Space-Track

Epoche: Sep 14, 2026, 05:02 UTC

1 16451U 86002C   26257.21002741  .00000002  00000-0  12344-3 0  9991
2 16451  73.9931 348.9183 0012723 109.7357 274.0629 12.45096603848954

Verfolge COSMOS 1718 in Echtzeit mit AllMySat

Download on the App Store